{"data":{"norad_id":67207,"intl_designator":"2025-304R","name":"STARLINK-36225","alt_names":[],"object_type":"PAYLOAD","status":"ACTIVE","operator":null,"country":"US","launch_date":"2025-12-17","launch_site_code":"AFWTR","launch_vehicle":null,"mission":null,"orbit_class":"UNKNOWN","rcs_meters":null,"size_class":null,"mass_kg":null,"dimensions":null,"purposes":["comms"],"wikipedia_slug":null,"has_3d_model":false,"image_url":null,"decayed_at":null,"tle_current":{"epoch":"2026-09-20T11:56:21.280992Z","epoch_age_seconds":78982,"freshness":"FRESH","line1":"1 67207U 25304R   26263.49746853  .00003789  00000+0  32504-3 0  9994","line2":"2 67207  70.0019  43.3277 0003010 267.7743  92.3071 14.98340957 43062","mean_motion":14.98340957,"eccentricity":0.000301,"inclination_deg":70.0019,"raan_deg":43.3277,"arg_perigee_deg":267.7743,"mean_anomaly_deg":92.3071,"bstar":0.00032504,"rev_number":4306,"period_min":96.106296318776,"perigee_km":569.93000967098,"apogee_km":574.11400539352,"semimajor_km":6950.1590075322,"source":"CELESTRAK","updated_at":"2026-09-21T09:00:36.138332Z"}}}